Location: Caltech
(34.1382°N, 118.1253°W)
Time: 09:11:48
(UTC-07:00)

PANSAT - Visible Passes

Search period start: 24 August 2016 00:00
Search period end: 03 September 2016 00:00
Orbit: 479 x 486 km, 28.5° (Epoch: 24 August)

Date Brightness Start Highest point End Pass type
(mag) Time Alt. Az. Time Alt. Az. Time Alt. Az.
24 Aug 8.9 20:14:46 10° SW 20:17:56 25° SSE 20:19:58 16° ESE visible
24 Aug 10.5 21:53:59 10° WSW 21:54:09 11° WSW 21:54:09 11° WSW visible
25 Aug 9.3 21:25:00 10° WSW 21:26:49 23° SW 21:26:49 23° SW visible
26 Aug 8.4 20:56:00 10° WSW 20:59:26 34° S 20:59:26 34° S visible
27 Aug 8.4 20:27:00 10° WSW 20:30:28 34° S 20:32:00 24° SE visible
28 Aug 8.5 19:58:00 10° WSW 20:01:27 34° S 20:04:33 12° ESE visible
28 Aug 10.1 21:37:55 10° WSW 21:38:43 14° WSW 21:38:43 14° WSW visible
29 Aug 9.3 21:08:56 10° WSW 21:11:15 22° SSW 21:11:15 22° SSW visible
30 Aug 9.1 20:39:57 10° WSW 20:42:58 23° SSW 20:43:47 21° S visible
31 Aug 9.3 20:10:57 10° WSW 20:13:57 22° SSW 20:16:20 13° SSE visible
01 Sep 9.3 19:41:58 10° WSW 19:44:57 22° SSW 19:47:56 10° SE visible
